User: anonymous   Login
Location: Il Ritiro
(43.4167°N, 13.1333°E)
Time: 13:22:15
(UTC+00:00)
Language:

Cosmos 864 Rocket - Orbit

View from above orbital plane
View from above orbital plane
View from above satellite
View from above satellite

Ground track
Ground track

The orbit data is extracted from the following two-line orbital elements,

1  9510U 76108B   20262.90109803 -.00000017 +00000-0 -32178-4 0  9994
2  9510 082.9377 219.3993 0027555 091.2976 269.1339 13.77590981205276
Epoch (UTC): 18 September 2020 21:37:34
Eccentricity: 0.0027555
inclination: 82.9377°
perigee height: 952 km
apogee height: 992 km
right ascension of ascending node: 219.3993°
argument of perigee: 91.2976°
revolutions per day: 13.77590981
mean anomaly at epoch: 269.1339°
orbit number at epoch: 20527

The dashed part of the orbit path shows where the satellite is in the earth's shadow,  

DLR